Location: Brachbach
(49.1847°N, 9.7240°E)
Time: 11:13:05
(UTC+00:00)

SL-24 R/B - Visible Passes

Search period start: 06 October 2024 00:00
Search period end: 16 October 2024 00:00
Orbit: 502 x 987 km, 97.5° (Epoch: 05 October)

Date Brightness Start Highest point End Pass type
(mag) Time Alt. Az. Time Alt. Az. Time Alt. Az.
06 Oct 4.2 18:42:25 10° SSE 18:47:16 83° WSW 18:51:35 10° NNW visible
06 Oct 7.3 20:25:47 10° W 20:26:29 10° W 20:27:10 10° W visible
07 Oct 4.6 18:00:07 10° SE 18:04:33 40° ENE 18:08:30 10° N visible
07 Oct 6.2 19:39:26 10° SSW 19:43:21 25° W 19:46:55 10° NW visible
08 Oct 5.6 17:18:59 10° ESE 17:21:59 18° ENE 17:24:45 10° NNE visible
08 Oct 4.6 18:56:35 15° S 19:00:25 60° WSW 19:04:34 10° NNW visible
09 Oct 4.2 18:13:44 14° SSE 18:17:37 53° ENE 18:21:37 10° N visible
09 Oct 6.6 19:53:32 11° SW 19:56:33 18° W 19:59:28 10° NW visible
10 Oct 5.3 17:31:32 10° ESE 17:34:57 22° ENE 17:38:06 10° NNE visible
10 Oct 5.1 19:10:40 19° SSW 19:13:32 43° W 19:17:27 10° NNW visible
11 Oct 3.9 18:27:47 21° SSE 18:30:40 72° ENE 18:34:39 10° N visible
11 Oct 7.0 20:07:45 10° WSW 20:09:44 13° W 20:11:37 10° WNW visible
12 Oct 4.9 17:44:52 13° ESE 17:47:55 28° ENE 17:51:18 10° N visible
12 Oct 5.7 19:24:40 22° SW 19:26:37 31° W 19:30:13 10° NNW visible
13 Oct 5.8 17:03:51 10° E 17:05:22 12° ENE 17:06:50 10° NE visible
13 Oct 3.9 18:41:44 32° S 18:43:40 83° WSW 18:47:36 10° NNW visible
14 Oct 4.5 17:58:47 22° ESE 18:00:51 36° ENE 18:04:25 10° N visible
14 Oct 6.2 19:38:34 20° WSW 19:39:40 22° W 19:42:49 10° NW visible
15 Oct 5.6 17:15:51 10° E 17:18:12 15° ENE 17:20:27 10° NNE visible
15 Oct 4.4 18:55:35 43° SSW 18:56:39 59° W 19:00:27 10° NNW visible
